Flag for Germany Weather past 2 weeks in Westerstede, Lower Saxony, Germany

Now
36 °F

Scattered clouds.


Feels Like: 28 °F
Forecast: 37 / 42 °F
Wind: 10 mph from Northeast

Location: Wittmundhaven

Current Time: Dec 29, 2014 at 10:34:36 AM

Latest Report: Dec 29, 2014 at 9:20 AM


Visibility: N/A

Pressure: 30.42 "Hg

Humidity: 81%

Dew point: 30 °F

Location of WesterstedeLocation

Historic Weather in Westerstede — Graph

°F

Westerstede temperature yesterday

Maximum temperature yesterday: 36 °F (at 12:20 PM)
Minimum temperature yesterday: 27 °F (at 6:20 AM)
Average temperature yesterday: 32 °F

Past Weeks' High & Low Weather Summary

 TemperatureHumidityPressure
High54 °F (Dec 18, 6:20 PM)100% (Dec 16, 1:20 AM)30.42 "Hg (Dec 16, 1:20 AM)
Low27 °F (Dec 26, 6:20 AM)57% (Dec 25, 12:20 PM)29.45 "Hg (Dec 17, 1:20 PM)
Average42 °F86%29.89 "Hg
* Reported Dec 14 9:20 AM — Dec 29 9:20 AM, Westerstede, Weather by CustomWeather, © 2014

Note: Actual official high and low records may vary slightly from our data, if they occured in-between our weather recording intervals... More about our weather records

Advertising

Westerstede weather history for previous 24 hours

 ConditionsComfort  
Time TempWeatherWind HumidityBarometerVisibility
9:20 AM
Dec 29
36 °FScattered clouds.10 mph81%30.42 "HgN/A
8:20 AM36 °FPassing clouds.10 mph81%30.39 "HgN/A
7:20 AM37 °FPassing clouds.14 mph81%30.33 "HgN/A
6:20 AM39 °FPassing clouds.14 mph81%30.33 "HgN/A
5:20 AM39 °FPassing clouds.14 mph81%30.30 "HgN/A
4:20 AM39 °FPassing clouds.16 mph70%30.30 "HgN/A
3:20 AM41 °FPassing clouds.12 mph76%30.27 "HgN/A
2:20 AM39 °FPartly cloudy.13 mph75%30.27 "HgN/A
1:20 AM37 °FPassing clouds.10 mph93%30.27 "HgN/A
12:20 AM36 °FPartly cloudy.9 mph93%30.30 "HgN/A
11:20 PM
Dec 28
36 °FFreezing rain. Fog.13 mph87%30.33 "Hg3 mi
11:02 PM36 °FLight freezing rain. Passing clouds.14 mph87%30.33 "Hg5 mi
10:20 PM36 °FLight rain. Partly cloudy.10 mph81%30.33 "HgN/A
9:20 PM36 °FPassing clouds.9 mph75%30.36 "HgN/A
8:20 PM36 °FPassing clouds.7 mph70%30.39 "HgN/A
7:20 PM36 °FPassing clouds.5 mph75%30.39 "HgN/A
6:20 PM34 °FPassing clouds.6 mph81%30.39 "HgN/A
5:20 PM34 °FPassing clouds.5 mph81%30.39 "HgN/A
4:20 PM36 °FPassing clouds.6 mph75%30.39 "HgN/A
3:20 PM36 °FPartly sunny.5 mph75%30.39 "HgN/A
2:20 PM36 °FPassing clouds.9 mph70%30.36 "HgN/A
1:20 PM36 °FPassing clouds.6 mph70%30.36 "HgN/A
12:20 PM36 °FScattered clouds.6 mph75%30.36 "HgN/A
11:20 AM34 °FPassing clouds.6 mph75%30.33 "HgN/A
10:20 AM30 °FScattered clouds.5 mph86%30.33 "HgN/A
Weather by CustomWeather, © 2014

See weather overviewHow to use our weather pages